Temperature
19 19 19 19 19 18 18 18 18 18 18 18 18 18 18 18 18 19 19 18 18 18 19 19 19 19 19 19 18 18 18 18 18 18 18 18 18 18 18 17 17 17 17
18 18 18 18 18 18 18 18 18 18 18 18 18 18 18 18 18 18 18 18 18 18 18 19 19 19 19 19 18 18 18 18 18 18 18 18 18 18 18 17 17 17 17
17 17 17 17 17 17 17 18 18 17 17 17 18 18 18 18 18 18 18 18 18 18 18 18 19 19 19 19 18 18 18 18 18 18 17 17 17 17 17 17 17 17 17
17 17 17 17 17 17 17 17 17 17 17 17 17 17 17 18 18 18 18 18 18 18 18 18 18 18 18 18 18 18 18 18 18 17 17 17 17 17 17 17 17 17 17
17 17 16 16 16 16 16 16 16 16 16 17 17 17 17 17 17 18 18 18 18 18 18 18 18 18 18 18 18 18 18 18 18 17 17 17 17 17 17 17 17 17 17
16 16 16 16 16 16 16 16 16 16 16 16 16 16 17 17 17 17 18 18 18 18 18 18 18 18 18 18 18 18 18 18 18 18 17 17 17 17 17 17 17 17 17
16 16 16 16 15 15 15 15 15 15 16 16 16 16 17 17 17 18 18 18 18 18 18 18 18 18 18 18 18 18 18 18 18 18 17 17 17 17 17 17 17 17 17
16 15 15 15 15 15 15 15 15 15 15 15 15 16 16 17 17 18 18 18 18 18 18 18 18 18 18 18 17 17 18 17 17 17 17 17 17 17 17 17 17 17 17
15 15 15 15 15 15 15 15 15 15 15 15 15 16 16 17 18 18 18 18 18 18 19 19 18 18 18 17 17 17 17 17 17 17 17 17 17 17 17 17 17 17 17
15 15 15 14 14 14 14 14 14 14 15 15 15 16 16 16 17 18 18 18 18 18 18 18 18 18 18 17 17 17 17 17 17 17 17 17 17 17 17 17 17 17 17
14 15 14 14 14 14 14 14 14 14 14 15 15 15 16 16 17 17 17 18 18 18 18 18 18 18 18 17 17 17 17 17 17 17 17 17 17 17 17 17 17 17 17
14 14 14 14 14 14 14 14 14 14 14 14 14 15 15 16 16 17 17 18 18 18 18 18 18 18 17 17 17 17 17 17 17 17 17 17 17 17 17 17 17 16 17
14 14 14 14 13 13 13 13 13 14 14 14 14 14 15 15 16 16 17 18 18 18 18 18 18 17 17 17 17 17 17 17 17 17 17 17 17 17 17 17 17 17 16
12 13 13 13 13 13 13 13 13 13 13 13 13 14 14 14 15 16 16 17 17 18 18 18 17 17 17 17 17 16 17 17 17 17 17 17 17 17 17 17 17 16 16
12 12 12 12 12 12 12 12 12 12 13 13 13 13 14 14 14 15 15 16 16 17 17 17 17 17 17 16 16 16 16 16 17 17 17 17 17 17 17 17 16 16 16
10 11 11 11 11 11 11 12 12 12 12 12 13 13 13 14 14 14 15 15 16 16 17 17 17 17 16 16 16 16 16 16 16 17 17 17 17 17 17 17 17 16 16
10 10 10 10 10 11 11 11 11 11 11 12 12 12 12 13 13 14 14 15 15 16 16 16 16 16 16 16 15 15 15 16 16 16 16 16 17 16 16 16 16 16 16
9 9 9 10 10 10 10 11 11 11 11 11 11 12 12 12 12 13 13 14 14 15 15 15 15 15 15 15 15 15 15 15 15 15 16 16 16 16 16 16 16 16 16
9 9 9 9 9 9 10 10 10 11 11 11 11 11 11 12 12 12 12 13 14 14 14 14 15 15 15 14 14 14 14 14 14 14 15 15 15 15 15 15 16 15 15
8 9 9 9 9 9 9 9 10 10 10 11 11 11 11 11 11 12 12 12 13 13 14 14 14 14 14 14 14 14 13 13 13 13 14 14 14 14 15 15 15 15 15
8 8 8 8 8 8 9 9 9 10 10 10 10 11 11 11 11 11 11 11 12 12 13 13 13 13 13 13 13 13 13 12 12 13 13 13 13 13 14 14 14 14 14
8 8 8 8 8 8 8 9 9 9 9 10 10 10 10 11 11 11 11 11 11 12 12 13 13 13 13 14 13 13 13 12 12 12 12 12 12 12 13 13 13 13 14
8 8 8 8 8 8 8 8 8 9 9 9 9 10 10 11 11 11 11 11 11 11 11 12 12 13 13 14 13 13 13 13 13 12 12 11 11 12 12 12 12 13 13
8 8 8 7 7 7 8 8 8 8 8 9 9 9 10 10 10 11 10 10 11 11 11 12 12 13 13 13 14 14 13 13 12 12 12 11 11 11 11 12 12 12 12
7 7 7 7 7 7 7 7 7 8 8 8 9 9 9 10 10 10 10 10 10 10 11 11 12 12 12 13 13 13 12 12 12 11 11 11 10 11 11 11 11 11 12
7 7 7 7 7 7 7 7 7 7 7 8 8 9 9 9 9 10 10 10 10 10 10 11 11 12 12 12 13 13 13 12 12 11 11 11 11 11 10 10 11 11 11
Wind_Speed
4 5 4 3 4 5 6 6 7 8 8 8 9 9 8 11 12 9 9 19 22 23 23 22 21 22 21 22 23 23 23 23 23 23 22 21 20 19 18 18 17 17 16
3 4 5 5 5 6 5 4 6 6 6 6 8 7 7 8 9 9 9 14 20 22 22 22 23 23 23 23 23 24 25 25 24 24 24 23 22 21 20 20 19 19 18
4 3 4 5 5 7 8 6 6 4 7 7 8 9 7 7 7 8 10 8 14 19 22 24 25 24 24 24 25 25 26 26 26 26 25 25 24 23 23 22 21 21 21
5 3 4 5 5 6 5 7 8 7 7 6 6 8 8 6 9 9 10 10 11 14 21 25 26 25 25 25 25 26 26 27 27 27 27 26 26 25 24 24 23 23 23
6 4 4 5 5 5 6 8 8 7 7 7 7 8 8 7 9 12 10 10 13 15 16 23 28 27 27 26 26 25 26 27 27 28 28 28 27 27 26 25 24 24 24
5 4 4 4 4 5 5 6 8 7 6 6 9 9 9 9 10 10 12 10 11 16 16 16 20 23 27 26 26 26 26 26 27 28 28 28 28 28 27 26 26 25 25
4 4 4 4 4 4 5 6 7 7 7 5 5 6 8 10 11 10 10 9 11 11 12 12 16 17 18 26 26 25 26 26 26 27 28 28 28 28 27 26 26 26 25
3 4 3 4 4 4 5 4 4 4 5 5 4 4 5 7 9 12 8 9 8 7 9 11 10 12 12 14 19 25 25 25 26 26 26 27 28 28 27 26 26 26 26
3 3 4 4 4 4 4 4 3 4 4 4 4 4 3 3 3 6 9 8 8 6 5 5 7 10 12 11 14 22 25 24 24 25 25 25 26 27 26 26 26 26 26
4 4 4 3 4 4 3 4 3 3 3 4 3 4 5 3 2 1 4 6 8 6 4 4 6 6 10 9 10 13 21 23 22 22 23 23 24 25 26 26 25 25 25
7 6 5 3 3 3 3 4 4 4 3 4 4 3 4 4 4 2 4 4 4 5 5 4 2 4 7 8 8 10 16 19 19 20 20 21 22 23 24 24 25 24 24
6 5 5 4 4 3 2 3 4 5 4 5 4 4 3 3 3 4 4 5 6 5 7 5 4 4 4 6 7 9 12 14 15 16 17 18 20 21 22 23 24 24 24
7 6 5 2 3 3 3 3 3 4 4 4 5 4 4 4 5 5 3 4 4 4 5 5 5 5 5 8 9 10 9 10 11 12 13 15 16 18 20 21 21 21 21
9 9 7 6 5 5 5 4 3 4 3 3 4 4 3 4 5 5 4 3 3 3 4 5 5 6 5 8 11 10 8 9 9 9 9 11 13 15 16 16 17 17 18
10 9 9 8 7 7 6 6 5 5 4 4 4 4 4 5 5 5 5 3 3 3 4 3 3 7 6 9 11 9 9 9 9 9 9 9 10 11 12 12 13 13 13
10 10 10 10 9 8 8 7 6 6 6 5 4 5 5 5 5 4 5 5 3 2 3 3 3 7 8 8 10 11 11 12 10 10 10 10 10 10 11 11 10 10 10
10 10 10 10 10 10 9 9 9 8 8 7 7 6 6 5 5 4 4 4 4 3 3 2 2 7 9 10 8 10 11 10 9 11 12 12 12 12 11 11 10 10 9
10 11 10 10 11 12 10 10 11 11 10 9 9 8 8 6 6 5 5 5 5 4 3 3 3 6 8 10 9 8 7 10 10 12 13 14 14 13 13 13 12 12 11
10 11 11 11 11 11 11 11 11 11 11 10 10 10 9 8 8 6 6 6 5 6 4 4 4 4 6 8 9 8 9 7 9 12 14 14 15 15 14 14 14 14 13
11 11 11 11 12 12 12 12 12 11 11 11 11 10 10 10 9 8 7 6 6 6 6 6 5 6 6 8 8 8 8 6 7 8 10 11 14 15 14 14 14 15 15
14 11 11 12 11 12 13 13 12 14 12 11 11 11 11 12 12 10 8 6 6 6 6 7 7 6 6 9 9 7 8 7 6 7 7 7 7 8 10 12 13 14 16
11 11 12 13 13 14 15 13 10 10 10 10 11 11 11 11 12 14 12 10 8 7 7 7 7 8 9 8 8 9 9 9 5 6 7 6 6 6 6 8 12 15 16
12 12 12 12 13 13 16 16 14 10 10 10 10 10 12 13 13 11 12 12 10 10 9 7 7 8 9 10 11 12 11 10 6 8 7 6 6 7 7 10 14 15 16
11 12 12 13 12 14 16 16 15 13 11 11 11 10 11 10 9 11 11 11 10 10 11 9 7 6 5 7 10 10 11 8 8 7 6 6 7 7 7 9 12 15 16
12 12 12 12 13 13 15 15 14 11 11 12 12 12 11 11 11 11 10 9 9 8 11 12 11 8 7 8 9 8 11 11 9 6 4 5 8 8 6 6 9 12 14
11 12 12 11 12 12 13 14 14 10 10 10 9 10 12 11 11 12 9 8 8 7 7 8 8 8 8 9 12 11 12 12 11 6 6 6 10 6 5 4 5 8 10
Wind_Direction
251 266 285 291 269 239 221 224 227 221 219 224 230 225 224 225 240 249 198 187 188 190 192 195 201 207 212 213 213 212 212 210 208 206 206 208 208 207 205 204 202 201 201
272 280 284 286 291 286 283 258 246 237 233 230 229 231 233 239 241 248 228 199 197 199 201 202 206 210 213 215 215 214 214 213 211 209 209 210 210 209 209 208 206 204 204
308 294 282 276 272 276 280 277 269 279 243 238 238 236 235 236 243 241 240 218 210 208 211 213 211 212 214 217 217 217 215 214 211 211 211 211 212 212 211 210 209 208 207
317 303 285 276 267 262 261 267 264 258 247 238 238 243 237 231 237 238 234 224 222 223 217 217 216 215 215 217 219 219 217 214 212 210 211 212 213 215 215 212 211 211 209
320 307 288 283 283 266 256 258 255 247 249 243 240 240 239 229 233 232 223 223 226 227 218 214 215 215 216 218 220 219 217 215 213 211 212 213 214 216 216 214 213 212 211
319 309 287 285 288 277 265 255 256 252 251 245 250 248 236 228 225 223 221 220 224 226 220 213 209 216 217 217 217 218 217 215 214 212 212 214 215 216 216 216 215 215 214
319 295 298 305 291 285 276 265 260 252 245 237 246 256 252 237 227 222 216 219 219 217 215 206 197 201 211 218 217 217 217 216 214 212 212 213 215 215 216 216 216 216 216
318 306 317 296 294 295 290 288 271 259 250 220 216 236 249 238 227 218 205 211 224 218 206 204 191 189 191 196 214 218 218 217 216 213 213 214 214 214 213 215 216 216 216
283 289 292 288 291 286 287 283 270 262 263 255 227 230 238 246 226 217 206 204 201 215 209 190 180 180 191 189 198 211 215 216 217 216 215 214 213 213 212 213 215 216 216
270 253 256 270 286 288 286 287 272 261 260 267 265 250 254 280 257 239 214 198 185 193 210 213 192 173 183 186 186 191 206 212 215 217 215 213 211 211 212 213 215 216 216
262 240 232 228 253 275 291 294 291 274 265 257 259 269 266 270 255 228 222 199 184 183 190 201 199 157 166 172 174 178 190 201 207 211 213 212 211 210 212 213 216 217 217
270 250 228 210 220 244 268 280 285 279 272 262 251 262 265 256 262 251 226 204 193 194 183 177 174 160 147 140 149 153 172 187 196 203 207 210 210 209 211 213 217 219 220
308 304 297 252 239 234 240 253 264 278 276 261 249 251 265 272 274 271 261 245 211 189 167 162 162 157 151 127 128 136 149 168 181 191 199 204 206 206 207 209 214 218 220
294 292 297 286 265 246 245 236 246 254 260 255 259 257 265 272 276 282 276 268 254 204 169 169 155 152 134 127 137 141 140 151 159 169 181 192 198 200 203 206 210 215 220
296 304 317 304 287 267 251 240 240 245 247 244 251 255 254 266 274 278 282 279 248 229 199 177 146 139 126 118 144 133 123 130 140 146 152 159 168 175 181 188 196 202 208
286 284 281 281 277 268 254 239 235 232 231 235 232 244 253 259 266 273 280 284 278 255 236 201 165 145 136 134 135 120 117 113 112 124 128 134 141 149 156 162 169 178 185
293 291 286 283 280 274 265 251 240 232 227 230 230 226 229 239 251 265 270 273 276 273 258 241 149 144 134 130 126 126 129 114 102 106 113 118 120 126 132 137 142 148 152
290 288 284 281 277 274 266 257 249 242 228 224 222 222 222 224 227 240 249 251 257 255 245 229 165 149 144 137 137 135 127 116 108 102 104 106 108 112 117 120 124 126 128
286 284 280 278 275 273 271 268 259 251 239 230 222 219 216 212 218 220 228 235 241 243 232 217 195 163 150 144 136 127 116 115 113 113 103 99 101 104 107 111 113 115 116
288 283 279 276 272 270 267 264 262 256 247 238 231 223 216 210 211 208 217 222 224 230 222 215 201 178 163 154 144 141 136 132 130 124 106 106 103 98 100 105 109 111 113
287 285 284 281 275 271 263 254 250 255 249 242 236 230 223 213 210 204 209 204 207 215 215 209 204 189 174 167 165 160 149 137 127 133 128 127 119 106 102 101 105 111 113
287 284 281 279 275 272 271 269 260 261 259 249 239 231 232 218 210 203 201 193 192 203 211 210 205 197 191 179 167 162 153 152 150 156 143 139 134 116 106 99 112 116 115
291 287 282 277 272 267 266 264 260 257 258 251 242 233 234 228 202 199 200 198 201 206 206 206 211 206 189 183 173 169 169 168 153 156 143 129 116 99 92 101 115 117 118
290 287 282 277 273 268 258 249 246 247 252 247 238 228 228 240 221 198 195 201 205 205 207 209 214 212 199 185 178 173 163 149 129 144 142 127 124 111 103 102 112 119 122
291 287 282 277 272 267 257 246 235 244 242 241 236 227 220 222 221 203 197 199 201 206 211 213 205 202 193 190 175 165 161 158 152 153 147 125 132 119 110 110 114 120 125
292 291 287 282 275 268 258 241 223 237 237 236 231 228 220 217 208 201 200 201 203 203 197 198 198 195 192 189 184 177 171 167 156 153 165 139 148 139 124 123 133 137 129
Height
1525 1526 1526 1526 1527 1526 1526 1525 1526 1526 1527 1529 1531 1533 1534 1535 1537 1539 1538 1539 1542 1544 1547 1549 1550 1552 1554 1556 1559 1561 1564 1567 1569 1571 1574 1576 1578 1580 1583 1585 1587 1590 1592
1522 1521 1521 1521 1521 1521 1522 1522 1521 1521 1523 1524 1526 1527 1528 1530 1531 1533 1534 1535 1536 1539 1542 1543 1545 1547 1549 1552 1554 1557 1560 1562 1565 1568 1570 1573 1575 1577 1580 1582 1585 1587 1589
1517 1516 1516 1516 1516 1516 1516 1516 1516 1516 1517 1519 1520 1522 1523 1524 1525 1527 1528 1529 1531 1534 1536 1538 1540 1542 1544 1547 1549 1552 1555 1558 1561 1563 1566 1569 1571 1573 1576 1579 1581 1584 1586
1513 1512 1511 1511 1511 1510 1510 1510 1510 1510 1511 1512 1513 1515 1517 1518 1519 1521 1523 1524 1526 1528 1530 1531 1534 1537 1539 1541 1544 1547 1549 1552 1555 1558 1561 1564 1567 1569 1572 1575 1578 1580 1583
1509 1508 1507 1506 1505 1504 1503 1503 1503 1504 1505 1505 1507 1508 1510 1511 1513 1515 1517 1518 1520 1523 1525 1526 1528 1531 1533 1536 1538 1541 1544 1547 1550 1553 1556 1559 1562 1565 1568 1570 1573 1576 1579
1506 1504 1503 1501 1500 1498 1497 1497 1498 1498 1498 1499 1500 1502 1504 1505 1507 1509 1510 1512 1514 1517 1519 1520 1523 1525 1528 1530 1532 1535 1538 1541 1544 1547 1550 1553 1557 1560 1563 1566 1569 1572 1575
1502 1501 1499 1497 1496 1494 1493 1492 1491 1492 1492 1494 1496 1496 1498 1499 1500 1502 1504 1506 1509 1511 1514 1515 1517 1519 1522 1525 1527 1529 1532 1535 1538 1541 1544 1548 1551 1554 1558 1561 1564 1567 1571
1499 1498 1496 1494 1492 1490 1489 1488 1487 1487 1487 1489 1491 1493 1492 1493 1493 1496 1499 1501 1504 1506 1508 1511 1514 1516 1518 1519 1522 1524 1527 1529 1532 1535 1539 1542 1546 1549 1552 1555 1559 1562 1566
1496 1494 1492 1490 1489 1487 1485 1485 1484 1483 1484 1486 1488 1489 1489 1488 1488 1491 1493 1496 1499 1502 1505 1507 1509 1511 1514 1516 1517 1520 1522 1524 1527 1530 1533 1536 1540 1543 1547 1550 1553 1557 1561
1492 1490 1489 1487 1485 1484 1483 1482 1481 1481 1481 1482 1483 1485 1486 1487 1488 1487 1490 1492 1495 1498 1500 1503 1505 1507 1509 1511 1513 1515 1517 1519 1522 1524 1527 1531 1534 1538 1541 1545 1548 1552 1555
1488 1486 1484 1483 1481 1480 1479 1479 1478 1478 1478 1479 1480 1481 1482 1483 1484 1486 1488 1490 1492 1494 1496 1499 1501 1503 1505 1507 1508 1510 1512 1515 1517 1519 1522 1526 1529 1532 1536 1540 1543 1547 1550
1484 1482 1481 1479 1477 1476 1476 1475 1475 1475 1474 1474 1475 1477 1479 1480 1481 1484 1485 1487 1489 1491 1493 1495 1497 1500 1502 1503 1505 1507 1509 1510 1512 1515 1517 1521 1524 1527 1531 1534 1538 1541 1545
1479 1478 1477 1475 1474 1473 1472 1471 1471 1471 1470 1470 1470 1472 1474 1476 1479 1481 1483 1484 1486 1488 1490 1492 1494 1496 1498 1499 1501 1503 1505 1507 1508 1511 1513 1516 1519 1523 1526 1529 1533 1536 1540
1474 1473 1472 1471 1470 1469 1468 1467 1467 1466 1466 1466 1466 1468 1469 1471 1474 1477 1479 1482 1483 1484 1486 1488 1490 1492 1495 1496 1498 1500 1502 1503 1505 1507 1510 1513 1515 1518 1522 1525 1528 1532 1535
1469 1468 1466 1465 1464 1464 1463 1463 1462 1462 1462 1462 1462 1463 1465 1467 1470 1472 1474 1477 1480 1481 1483 1485 1487 1489 1491 1493 1495 1497 1498 1500 1501 1504 1506 1509 1512 1515 1518 1521 1524 1527 1530
1462 1461 1460 1459 1458 1458 1457 1457 1457 1457 1457 1458 1458 1458 1460 1462 1464 1467 1469 1472 1475 1478 1479 1481 1484 1486 1488 1490 1492 1494 1495 1496 1498 1500 1503 1506 1508 1511 1514 1517 1520 1523 1525
1456 1454 1453 1452 1452 1451 1451 1452 1452 1452 1452 1453 1453 1454 1455 1457 1458 1461 1464 1467 1470 1473 1475 1478 1481 1483 1485 1487 1489 1491 1492 1494 1495 1497 1500 1503 1505 1508 1511 1513 1516 1519 1521
1449 1448 1446 1445 1444 1444 1445 1445 1445 1446 1446 1447 1448 1449 1450 1451 1453 1455 1458 1461 1464 1468 1472 1475 1478 1480 1483 1485 1487 1488 1490 1491 1493 1495 1498 1500 1503 1505 1508 1510 1513 1515 1517
1443 1441 1439 1438 1437 1437 1437 1437 1438 1439 1440 1441 1442 1443 1445 1446 1447 1449 1451 1454 1458 1462 1467 1471 1474 1476 1479 1482 1484 1486 1488 1490 1491 1493 1495 1498 1500 1503 1505 1507 1510 1512 1514
1436 1434 1432 1431 1430 1429 1429 1429 1430 1431 1432 1434 1436 1437 1439 1440 1442 1443 1445 1448 1452 1456 1460 1464 1468 1472 1475 1478 1480 1483 1486 1488 1490 1492 1494 1496 1498 1501 1503 1505 1508 1510 1512
1430 1427 1425 1423 1422 1421 1421 1421 1422 1423 1424 1426 1428 1430 1433 1434 1436 1438 1440 1442 1445 1449 1453 1457 1462 1466 1470 1473 1476 1479 1483 1486 1489 1491 1493 1495 1497 1499 1501 1504 1506 1508 1510
1423 1420 1418 1416 1414 1414 1414 1414 1415 1415 1416 1418 1420 1423 1426 1429 1430 1433 1435 1437 1440 1443 1447 1450 1455 1459 1463 1468 1472 1475 1479 1482 1486 1489 1492 1494 1496 1498 1500 1502 1505 1507 1509
1416 1413 1410 1407 1405 1404 1404 1404 1405 1407 1408 1410 1412 1416 1420 1423 1425 1427 1429 1431 1434 1437 1441 1445 1449 1453 1457 1462 1466 1470 1474 1479 1482 1485 1490 1492 1495 1497 1499 1501 1504 1506 1508
1409 1405 1402 1399 1397 1395 1395 1395 1396 1398 1399 1401 1404 1408 1412 1416 1419 1421 1424 1426 1428 1431 1435 1439 1443 1447 1452 1457 1462 1466 1470 1476 1480 1484 1487 1490 1493 1495 1498 1501 1503 1505 1508
1401 1398 1394 1391 1388 1386 1386 1386 1387 1388 1390 1393 1397 1401 1406 1410 1414 1417 1419 1421 1423 1426 1430 1433 1438 1442 1447 1451 1456 1461 1466 1471 1475 1480 1484 1487 1490 1493 1497 1500 1502 1504 1507
1395 1391 1387 1384 1381 1378 1378 1378 1379 1381 1383 1386 1390 1395 1399 1404 1408 1411 1415 1417 1420 1422 1425 1428 1432 1436 1441 1446 1451 1455 1460 1465 1469 1475 1480 1483 1486 1490 1495 1498 1500 1503 1506